This is the latest recevied weather packets stored in our database for station/object AG7BI. If no packets are shown the sender has not sent any weather packets the latest 10 day(s).
| Time | Temp. | Humidity | Pressure | Rain* | Wind** | Luminosity | Snow |
|---|---|---|---|---|---|---|---|
| 1777829752 | 17.78° C | 59% | 1014.7 hPa | 0 mm | - | - | - |
| 1777829452 | 17.78° C | 58% | 1014.8 hPa | 0 mm | - | - | - |
| 1777829152 | 17.22° C | 61% | 1014.8 hPa | 0 mm | - | - | - |
| 1777828852 | 17.22° C | 60% | 1014.9 hPa | 0 mm | - | - | - |
| 1777828552 | 17.22° C | 62% | 1014.9 hPa | 0 mm | - | - | - |
| 1777828252 | 17.22° C | 60% | 1014.9 hPa | 0 mm | - | - | - |
| 1777827952 | 17.22° C | 61% | 1014.8 hPa | 0 mm | - | - | - |
| 1777827652 | 16.67° C | 62% | 1014.7 hPa | 0 mm | - | - | - |
| 1777827352 | 16.67° C | 61% | 1014.9 hPa | 0 mm | - | - | - |
| 1777827052 | 16.67° C | 63% | 1014.9 hPa | 0 mm | - | - | - |
| 1777826752 | 16.67° C | 64% | 1014.8 hPa | 0 mm | - | - | - |
| 1777826452 | 16.67° C | 63% | 1014.9 hPa | 0 mm | - | - | - |
| 1777826152 | 16.67° C | 61% | 1015 hPa | 0 mm | - | - | - |
| 1777825852 | 16.67° C | 61% | 1014.8 hPa | 0 mm | - | - | - |
| 1777825552 | 16.67° C | 61% | 1015 hPa | 0 mm | - | - | - |
| 1777825252 | 16.11° C | 64% | 1015 hPa | 0 mm | - | - | - |
| 1777824952 | 15.56° C | 63% | 1014.9 hPa | 0 mm | - | - | - |
| 1777824652 | 15.56° C | 64% | 1015.2 hPa | 0 mm | - | - | - |
| 1777824352 | 15.56° C | 65% | 1015 hPa | 0 mm | - | - | - |
| 1777824052 | 15.56° C | 66% | 1015 hPa | 0 mm | - | - | - |
| 1777823752 | 15.56° C | 65% | 1015 hPa | 0 mm | - | - | - |
| 1777823452 | 15.56° C | 64% | 1015.2 hPa | 0 mm | - | - | - |
| 1777823152 | 15.56° C | 66% | 1014.9 hPa | 0 mm | - | - | - |
| 1777822852 | 15.56° C | 67% | 1015 hPa | 0 mm | - | - | - |
| 1777822552 | 15.56° C | 64% | 1014.8 hPa | 0 mm | - | - | - |
* Rain latest hour (hover to see other rain measurements)
** Current wind speed in m/s (hover to see current wind gust speed)